User: anonymous   Login
Location: Unspecified
(0.0000°N, 0.0000°E)
Time: 21:52:21
(UTC+00:00)
Language:

NORSAT 1 - Orbit

View from above orbital plane
View from above orbital plane
View from above satellite
View from above satellite

Ground track
Ground track

The orbit is defined by the following mean orbital elements,

1 42826U          26150.42759985 +.00000000 +00000-0 +47944-3 0 00009
2 42826  97.4423 318.5448 0008154 137.7227 222.4634 15.13833000    00
Epoch (UTC): 30 May 2026 10:15:44
Eccentricity: 0.0008154
inclination: 97.4423°
perigee height: 519 km
apogee height: 530 km
right ascension of ascending node: 318.5448°
argument of perigee: 137.7227°
revolutions per day: 15.13833000
mean anomaly at epoch: 222.4634°

The dashed part of the orbit path shows where the satellite is in the earth's shadow,  

DLR